Вернуться в каталог

SL-12 DEB

LostHEO
NORAD 41645·DEBRIS·🇷🇺 Russia

Запущен Dec 25, 2008 с Baikonur Cosmodrome

Loading…

Ближайшие Пролёты (ближайшие 24 часа)

TLE

УстаревшееSource: Space-Track

Эпоха: Feb 14, 2022, 22:13 UTC

1 41645U 08067R   22045.92574391  .00738089  00000-0  34400+0 0  9999
2 41645  65.1984  23.8936 5550019 358.6696   0.2571  4.66355773 87246

Отслеживайте SL-12 DEB в реальном времени с AllMySat

Download on the App Store